Current Version              Previous Version:    01  02  03  04  05  06  07  08  09  10  11  12  13  14  15  16  17  18  19  20  21  22  23  24  25  26  27  28  29  30  
   31  32  33  34  35  36  37  38  39  40  41  42  43  44  45  46  47  48  49  50  51  52  53  54  55  56  57  58  59  60  

[Printable]
917
ASUS44 KEWX 250810
RWRTX
SOUTH TEXAS REGIONAL WEATHER ROUNDUP
NATIONAL WEATHER SERVICE AUSTIN/SAN ANTONIO TX
300 AM CDT SAT OCT 25 2014

NOTE: "FAIR" INDICATED FEW OR NO CLOUDS BELOW 12,000 FEET WITH NO
SIGNIFICANT WEATHER AND/OR OBSTRUCTIONS TO VISIBILITY.

* - THESE STATIONS ARE NOT NWS OR FAA STATIONS...AND ARE NOT SUBJECT
    TO NWS AND FAA QUALITY CONTROL.

TXZ171-172-183>190-250900-
TEXAS HILL COUNTRY AND EDWARDS PLATEAU

CITY           SKY/WX    TMP DP  RH WIND       PRES   REMARKS
JUNCTION       CLEAR     61  56  83 S3        30.17S
*LLANO         NOT AVBL
BURNET         CLEAR     63  57  81 S3        30.17F
*HORSESHOE BAY CLEAR     68  56  64 CALM      30.15S
*KERRVILLE     CLEAR     56  54  91 CALM      30.18S
*FREDERICKSBRG CLEAR     57  55  91 NW3       30.18S
*ROCKSPRINGS   CLEAR     63  55  77 SE6       30.21S
*BOERNE STAGE  CLEAR     57  54  88 CALM      30.18F
*CASTROVILLE   CLEAR     61  51  69 CALM      30.17S
HONDO          CLEAR     57  54  89 NE6       30.18R
*UVALDE        CLEAR     63  58  83 CALM      30.16S
DEL RIO        CLEAR     67  62  84 E6        30.12S
LAUGHLIN AFB   CLEAR     63  60  90 E6        30.13S
CARRIZO SPRGS  CLEAR     68  59  73 S6        30.12F
$$

TXZ173-191>194-202-209-217>225-228-250900-
CENTRAL AND SOUTH CENTRAL TEXAS

CITY           SKY/WX    TMP DP  RH WIND       PRES   REMARKS
GEORGETOWN     CLEAR     64  57  77 SW5       30.14S
AUSTIN/BERGSTM CLEAR     56  56 100 CALM      30.14F
AUSTIN/MABRY   CLEAR     65  58  78 CALM      30.15F
*AUSTIN/EXEC   PTCLDY    61  57  88 SW5       30.14F
*LAGO VISTA    CLEAR     69  56  63 SW8       30.16S
SAN MARCOS     CLEAR     61  52  72 CALM      30.16S
NEW BRAUNFELS  CLEAR     63  58  83 W3        30.14S
RANDOLPH AFB   CLEAR     63  56  78 SW5       30.15F
PT SAN ANTONIO CLEAR     62  56  82 CALM      30.14S
SAN ANTONIO    CLEAR     70  59  68 S3        30.16S
STINSON FIELD  CLEAR     65  58  78 CALM      30.14S
*PLEASANTON    CLEAR     63  58  83 CALM      30.15S
*LA GRANGE     CLEAR     64  59  84 SW3       30.12S
*GIDDINGS      CLEAR     62  56  80 CALM      30.17S
*GONZALES      CLEAR     64  60  86 CALM      30.14S
$$

TXZ163>164-176>182-195>201-210>213-226-227-235-250900-
SOUTHEAST TEXAS

CITY           SKY/WX    TMP DP  RH WIND       PRES   REMARKS
COLLEGE STN    CLEAR     62  56  80 S3        30.13S
*BRYAN         CLEAR     62  56  81 S3        30.14S
*CALDWELL      CLEAR     61  57  88 CALM      30.16S
*CROCKETT      CLEAR     57  57 100 CALM      30.16F
*BRENHAM       CLEAR     62  58  87 CALM      30.14S
HUNTSVILLE     CLEAR     61  55  81 CALM      30.13F
CONROE         CLEAR     54  52  93 CALM      30.14F
HOUSTON BUSH   CLEAR     59  57  93 CALM      30.13S
HOUSTON HOBBY  CLEAR     60  58  92 CALM      30.12S
*HOUSTON SW AP CLEAR     51  51 100 CALM      30.13S
PEARLAND       CLEAR     59  56  89 CALM      30.13F
HOUSTON HOOKS  CLEAR     57  56  96 CALM      30.13F FOG
ELLINGTON FLD  CLEAR     63  55  77 CALM      30.13S
SUGAR LAND     CLEAR     59  57  93 CALM      30.13S
*HOUSTON EXEC  CLEAR     59 N/A N/A CALM      30.14S
*CLEVELAND MUN NOT AVBL
*WHARTON       CLEAR     57  55  91 CALM      30.13F
*COLUMBUS      FAIR      57  56  96 CALM      30.13S
$$

TXZ214>216-236>238-250900-
THE UPPER TEXAS COAST

CITY           SKY/WX    TMP DP  RH WIND       PRES   REMARKS
*ORANGE        CLEAR    N/A N/A N/A CALM      30.14F
PORT ARTHUR    CLEAR     55  53  93 CALM      30.12S
GALVESTON      CLEAR     68  61  78 N5        30.13S
ANGLETON       CLEAR     54  54 100 CALM      30.12F
*BAY CITY        N/A     57  57  99 CALM      30.12F
PALACIOS       CLEAR     61  57  87 E3        30.12F
$$

TXZ229>234-239>247-250900-
TEXAS COASTAL BEND AND RIO GRANDE PLAINS

CITY           SKY/WX    TMP DP  RH WIND       PRES   REMARKS
VICTORIA       CLEAR     60  56  86 CALM      30.13F
*BEEVILLE      CLEAR     66  61  83 CALM      30.13F
ROCKPORT       CLEAR     64  60  87 CALM      30.12F
*PORT ARANSAS  CLEAR     73  62  68 E5        30.11F
*PORT LAVACA   CLEAR     61  58  88 N5        30.13S
*INGLESIDE     CLEAR     66  61  84 CALM      30.12S
CORPUS CHRISTI CLEAR     64  61  90 W5        30.13S
CORPUS NAS     CLEAR     71  65  81 CALM      30.12S
*ROBSTOWN      NOT AVBL
ALICE          CLEAR     64  59  83 W5        30.13S
KINGSVILLE NAS CLEAR     62  61  96 W5        30.13S
COTULLA        CLEAR     67  58  72 SE5       30.14S
*FAITH RANCH   CLEAR     68  59  73 SE6       30.14S
LAREDO         CLEAR     69  61  76 SE6       30.17S
$$

TXZ248>255-250900-
DEEP SOUTH TEXAS

CITY           SKY/WX    TMP DP  RH WIND       PRES   REMARKS
BROWNSVILLE    CLEAR     67  65  93 NW3       30.11F
PORT ISABEL    CLEAR     67  63  87 CALM      30.11F
*SOUTH PADRE   CLEAR    N/A N/A N/A CALM      30.10F
HARLINGEN      CLEAR     63  61  93 W3        30.11F
*HEBBRONVILLE  CLEAR     62  60  91 S5        30.16S
MCALLEN        CLEAR     66  64  93 CALM      30.13F
*WESLACO       CLEAR     64  61  88 CALM      30.13S
FALFURRIAS     CLEAR     62  58  87 W3        30.14S
EDINBURG       CLEAR     65  62  90 CALM      30.13F
*ZAPATA        CLEAR     66  61  84 SE3       30.13F
$$

TXZ213>215-236>238-242>244-246-247-251-254-255-250900-
CMAN STATIONS

STATION/POSITION TIME  TEMP    WIND        PRES    WAVE
                       AIR SEA DIR/SP/G            HT/PER
                 (UTC) (F)     (DEG/KT/KT) (MB)    (FT/S)
SABINE PASS      0800   64 72   20/  4/  5 1020.1
SEA RIM ST PARK  0800   62      10/  5/  5 1020.5
NORTH JETTY/GLS  0800   70 75   60/  4/  4   N/A
EAGLE POINT      0800   71 73   90/  4/  5 1020.0
MORGANS POINT    0800   68      90/  3/  3 1019.9
MISSION/ARANSAS  0700           70/  2     1021.0
PORT O`CONNOR    0800           70/  6/  7   N/A
PORT ARANSAS     0800   77 78   80/  7/  7 1020.6
MALAQUITE BEACH  0800   77 78   80/  7/  8 1019.4
BAFFIN BAY       0800   75 82  110/  4/  6 1019.9
PORT ISABEL      0800   72 78     CALM     1019.5
$$

GMZ080-GMZ150>470-250900-
OFFSHORE BUOY REPORTS

STATION/POSITION TIME  TEMP    WIND        PRES    WAVE
                       AIR SEA DIR/SP/G            HT/PER
                 (UTC) (F)     (DEG/KT/KT) (MB)    (FT/S)
20 E GALVESTON   0800   73 77   40/  6/  8 1019.6    1/ 7
90 E PT ARANSAS  0800   76 81   50/ 10/ 10 1020.1    3/ 7
35 NE PT MANSFLD 0800   77 80   70/  8/  8 1019.4    3/ 8
200 E PT ISABEL  0800   75 81   30/ 10/ 12 1018.4    4/ 8
$$